Regional Weather Roundup
Issued by NWS

Home | Current Version | Previous Version | Text Only | Print | Product List | Glossary Off
Versions: 1 2 3 4 5 6 7 8 9 10 11 12 13 14 15 16 17 18 19 20 21 22 23 24 25 26 27 28 29 30 31 32 33 34 35 36 37 38 39 40 41 42 43 44 45 46 47 48 49 50

000
ASUS43 KDTX 201210
RWRMI
MICHIGAN HOURLY REGIONAL WEATHER ROUNDUP
NATIONAL WEATHER SERVICE DETROIT/PONTIAC MI
800 AM EDT SUN APR 20 2014

NOTE: "FAIR" INDICATES FEW OR NO CLOUDS BELOW 12,000 FEET WITH NO
SIGNIFICANT WEATHER AND/OR OBSTRUCTION TO VISIBILITY.

MIZ047>049-052>055-059>063-066>070-074>076-081>083-201300-
SOUTHEAST LOWER MICHIGAN

CITY           SKY/WX    TMP DP  RH WIND       PRES   REMARKS
ADRIAN         SUNNY     38  32  79 CALM      30.32R
6HR MIN TEMP:  33; 6HR MAX TEMP:  38;

ALMA           MOSUNNY   38  33  82 SE3       30.28S
ANN ARBOR      SUNNY     37  31  78 CALM      30.31S
BAD AXE        PTSUNNY   39  29  67 SE5       30.31S
6HR MIN TEMP:  31; 6HR MAX TEMP:  39;

DETROIT CITY   MOSUNNY   40  33  76 CALM      30.33R
6HR MIN TEMP:  38; 6HR MAX TEMP:  42;

DETROIT        PTSUNNY   41  33  73 N3        30.33R
6HR MIN TEMP:  37; 6HR MAX TEMP:  42;

FLINT          MOSUNNY   37  31  78 E3        30.30S
6HR MIN TEMP:  33; 6HR MAX TEMP:  41;

GROSSE ILE     MOSUNNY   39  32  75 CALM      30.31S
HILLSDALE      SUNNY     41  33  74 SE6       30.29R
6HR MIN TEMP:  37; 6HR MAX TEMP:  41;

HOWELL         SUNNY     39  31  75 SE8       30.28F
6HR MIN TEMP:  34; 6HR MAX TEMP:  39;


CITY           SKY/WX    TMP DP  RH WIND       PRES   REMARKS
JACKSON        SUNNY     39  31  72 SE8       30.28F
6HR MIN TEMP:  36; 6HR MAX TEMP:  39;

LAMBERTVILLE   SUNNY     37  34  87 CALM      30.31S
LANSING        SUNNY     41  28  60 SE7       30.29R
6HR MIN TEMP:  38; 6HR MAX TEMP:  43;

LAPEER         NOT AVBL
MASON          SUNNY     40  31  70 SE8       30.28S
MONROE         SUNNY     37  34  87 CALM      30.30S
MT. CLEMENS    CLOUDY    36  32  87 CALM      30.31S
6HR MIN TEMP:  32; 6HR MAX TEMP:  38;

PONTIAC        PTSUNNY   40  29  64 E6        30.30S
6HR MIN TEMP:  36; 6HR MAX TEMP:  40;

PORT HOPE        N/A     39  34  82 SE5       30.30S
6HR MIN TEMP:  33; 6HR MAX TEMP:  39;

PORT HURON     SUNNY     32  30  93 CALM      30.33S FOG
TRI CITIES     SUNNY     40  33  76 SE6       30.30S
6HR MIN TEMP:  34; 6HR MAX TEMP:  42;

YPSILANTI      SUNNY     38  32  79 NE3       30.32R HAZE
6HR MIN TEMP:  32; 6HR MAX TEMP:  41;

$$
MIZ043>046-050>051-056>058-064>065-071>073-077>080-201300-
SOUTHWEST LOWER MICHIGAN

CITY           SKY/WX    TMP DP  RH WIND       PRES   REMARKS
BATTLE CREEK   MOSUNNY   41  30  65 SE10      30.27S
6HR MIN TEMP:  39; 6HR MAX TEMP:  45;

BENTON HARBOR  SUNNY     42  30  62 SE12      30.24S
6HR MIN TEMP:  40; 6HR MAX TEMP:  46;

BIG RAPIDS     CLOUDY    42  30  61 S5        30.26R
6HR MIN TEMP:  37; 6HR MAX TEMP:  42;

COLDWATER      MOSUNNY   40  32  71 SE7       30.28S
6HR MIN TEMP:  37; 6HR MAX TEMP:  41;

HOLLAND        SUNNY     45  29  53 SE8       30.25R
6HR MIN TEMP:  42; 6HR MAX TEMP:  48;

GRAND RAPIDS   PTSUNNY   44  29  55 SE12      30.25S
6HR MIN TEMP:  40; 6HR MAX TEMP:  46;

KALAMAZOO      MOSUNNY   41  30  65 SE6       30.27R
6HR MIN TEMP:  39; 6HR MAX TEMP:  44;

MARSHALL       MOSUNNY   40  31  70 S6        30.28R
MUSKEGON       PTSUNNY   45  29  53 SE7       30.25R
6HR MIN TEMP:  43; 6HR MAX TEMP:  49;

$$
MIZ016>042-201300-
NORTHERN LOWER MICHIGAN

CITY           SKY/WX    TMP DP  RH WIND       PRES   REMARKS
ALPENA         PTSUNNY   38  32  79 S7        30.30S
6HR MIN TEMP:  28; 6HR MAX TEMP:  38;

BEAVER ISLAND  LGT RAIN  40  37  87 SE9G16    30.20F
6HR MIN TEMP:  38; 6HR MAX TEMP:  45;

BELLAIRE       CLOUDY    47  29  51 S6        30.24R
6HR MIN TEMP:  46; 6HR MAX TEMP:  47;

CADILLAC       CLOUDY    44  29  57 S7        30.23S
CHARLEVOIX     LGT RAIN  43  36  77 SE5       30.26S
6HR MIN TEMP:  43; 6HR MAX TEMP:  49;

FRANKFORT      CLOUDY    49  27  41 SE6       30.22R
GAYLORD        PTSUNNY   40  30  67 S10       30.25R
6HR MIN TEMP:  37; 6HR MAX TEMP:  40;

GRAYLING       MOSUNNY   38  31  76 CALM      30.27S
6HR MIN TEMP:  30; 6HR MAX TEMP:  38;

HARBOR SPRINGS RAIN      41  39  94 CALM      30.23S
HOUGHTON LAKE  PTSUNNY   41  30  65 S8        30.27S
6HR MIN TEMP:  32; 6HR MAX TEMP:  41;

MANISTEE       CLOUDY    46  25  42 SE6       30.23R
OSCODA         MOSUNNY   35  32  92 S6        30.30S
PELLSTON       LGT RAIN  38  35  89 S3        30.24S FOG
6HR MIN TEMP:  37; 6HR MAX TEMP:  41; 6HR PCP:  0.15;

TRAVERSE CITY  CLOUDY    48  28  46 CALM      30.22R
6HR MIN TEMP:  46; 6HR MAX TEMP:  49;

$$
MIZ007>008-015-201300-
EASTERN UPPER MICHIGAN

CITY           SKY/WX    TMP DP  RH WIND       PRES   REMARKS
KINROSS        CLOUDY    34  34 100 SE14      30.22F
6HR MIN TEMP:  34; 6HR MAX TEMP:  34; 6HR PCP:  0.17;

MACKINAC ISLAN MIX PCPN  36  35  96 S10       30.23S
6HR MIN TEMP:  33; 6HR MAX TEMP:  36; 6HR PCP:  0.12;

NEWBERRY       CLOUDY    37  35  94 S12       30.16S
6HR MIN TEMP:  33; 6HR MAX TEMP:  37; 6HR PCP:  0.09;

S. S. MARIE    RAIN      33  31  92 E9        30.21F FOG
6HR MIN TEMP:  33; 6HR MAX TEMP:  34; 6HR PCP:  0.23;

$$
MIZ004>006-011>014-085-201300-
CENTRAL UPPER MICHIGAN

CITY           SKY/WX    TMP DP  RH WIND       PRES   REMARKS
MANISTIQUE     MIX PCPN  37  36  95 S9G16     30.17S
6HR MIN TEMP:  35; 6HR MAX TEMP:  37; 6HR PCP:  0.13;

ESCANABA       CLOUDY    37  34  87 S13       30.12S
6HR MIN TEMP:  36; 6HR MAX TEMP:  39; 6HR PCP:  0.07;

MENOMINEE      CLOUDY    43  37  81 S7        30.14R
6HR MIN TEMP:  37; 6HR MAX TEMP:  45; 6HR PCP:  0.07;

SAWYER-GWINN   CLOUDY    37  36  93 S9        30.09R FOG
$$
MIZ001>003-009>011-084-201300-
WESTERN UPPER MICHIGAN

CITY           SKY/WX    TMP DP  RH WIND       PRES   REMARKS
IRON MOUNTAIN  CLOUDY    42  40  92 CALM      30.08R FOG
6HR MIN TEMP:  39; 6HR MAX TEMP:  42; 6HR PCP:  0.01;

HOUGHTON       CLEAR     41  34  76 S3        30.02R
6HR MIN TEMP:  36; 6HR MAX TEMP:  43;

COPPER HARBOR    N/A     46  36  68 W12G20    30.01R
6HR MIN TEMP:  38; 6HR MAX TEMP:  46;

IRONWOOD       PTCLDY    43  36  75 CALM      30.00S
6HR MIN TEMP:  43; 6HR MAX TEMP:  50;

$$

ABBREVIATIONS USED IN REMARKS
   TC - TEMPERATURE IN CELSIUS
  WCI - WIND CHILL INDEX
   HX - HEAT INDEX
  VSB - VISIBILITY




USA.gov is the U.S. government's official web portal to all federal, state and local government web resources and services.